Change the Weather History Date:

Saturday, March 16, 2013

  Actual Average Record
Temperature  
Mean Temperature 74 °F 60 °F  
Max Temperature 86 °F 70 °F 89 °F (2007)
Min Temperature 61 °F 50 °F 31 °F (1956)
Degree Days  
Heating Degree Days 0 6  
Month to date heating degree days 64 116  
Since 1 July heating degree days 1701 1807  
Cooling Degree Days 9 1  
Month to date cooling degree days 32 8  
Year to date cooling degree days 32 9  
Growing Degree Days 24 (Base 50)    
Moisture  
Dew Point 20 °F    
Average Humidity 16    
Maximum Humidity 26    
Minimum Humidity 6    
Precipitation  
Precipitation 0.00 in 0.01 in 0.20 in (2003)
Month to date precipitation 0.15 0.29  
Year to date precipitation 0.58 1.59  
Snow  
Snow 0.00 in 0.00 in 0.00 in (2014)
Month to date snowfall 0.0 0.0  
Since 1 July snowfall T 0.3  
Snow Depth 0.00 in    
Sea Level Pressure  
Sea Level Pressure 29.72 in    
Wind  
Wind Speed 8 mph (SW)    
Max Wind Speed 23 mph    
Max Gust Speed 32 mph    
Visibility 10 miles    
Events      
T = Trace of Precipitation, MM = Missing Value Source: NWS Daily Summary

Daily Weather History Graph

Daily Weather History Graph

Search for Another Location

Airport or City:

Trip Planner

Search our weather history database for the weather conditions in past years. The results will help you decide how hot, cold, wet, or windy it might be!

Date:

Astronomy

Mar. 16, 2013 Rise Set
Actual Time 6:49 AM PDT 6:49 PM PDT
Civil Twilight 6:23 AM PDT 7:14 PM PDT
Nautical Twilight 5:54 AM PDT 7:44 PM PDT
Astronomical Twilight 5:24 AM PDT 8:14 PM PDT
Moon 9:31 AM PDT (3/16) 11:52 PM PDT (3/16)
Length of Visible Light 12h 50m
Length of Day
11h 59m
Waxing Crescent, 24% of the Moon is Illuminated
Mar 16
Waxing Crescent
Mar 19
First Quarter
Mar 27
Full
Apr 2
Last Quarter
Apr 10
New

Hourly Weather History & Observations

Time (PDT) Temp. Dew Point Humidity Pressure Visibility Wind Dir Wind Speed Gust Speed Precip Events Conditions
12:56 AM 72.0 °F 28.0 °F 20% 29.74 in 10.0 mi South 4.6 mph - N/A   Mostly Cloudy
1:56 AM 69.1 °F 30.9 °F 24% 29.74 in 10.0 mi SW 4.6 mph - N/A   Mostly Cloudy
2:56 AM 66.0 °F 30.9 °F 27% 29.73 in 10.0 mi SW 3.5 mph - N/A   Mostly Cloudy
3:56 AM 66.9 °F 28.9 °F 24% 29.73 in 10.0 mi SW 9.2 mph - N/A   Mostly Cloudy
4:56 AM 64.9 °F 27.0 °F 24% 29.73 in 10.0 mi South 9.2 mph - N/A   Mostly Cloudy
5:56 AM 64.9 °F 27.0 °F 24% 29.74 in 10.0 mi West 6.9 mph - N/A   Scattered Clouds
6:56 AM 62.1 °F 27.0 °F 26% 29.76 in 10.0 mi SSW 9.2 mph - N/A   Scattered Clouds
7:56 AM 63.0 °F 27.0 °F 26% 29.78 in 10.0 mi SW 6.9 mph - N/A   Partly Cloudy
8:56 AM 68.0 °F 26.1 °F 21% 29.79 in 10.0 mi SSW 9.2 mph - N/A   Partly Cloudy
9:56 AM 73.0 °F 25.0 °F 17% 29.80 in 10.0 mi SSW 5.8 mph - N/A   Partly Cloudy
10:56 AM 78.1 °F 23.0 °F 13% 29.79 in 10.0 mi North 18.4 mph - N/A   Partly Cloudy
11:56 AM 82.0 °F 19.0 °F 10% 29.78 in 10.0 mi North 5.8 mph - N/A   Scattered Clouds
12:56 PM 82.9 °F 16.0 °F 8% 29.75 in 10.0 mi Variable 3.5 mph - N/A   Partly Cloudy
1:56 PM 84.0 °F 16.0 °F 8% 29.73 in 10.0 mi Variable 3.5 mph - N/A   Partly Cloudy
2:56 PM 84.9 °F 14.0 °F 7% 29.71 in 10.0 mi Variable 4.6 mph - N/A   Scattered Clouds
3:56 PM 86.0 °F 14.0 °F 7% 29.68 in 10.0 mi NNW 6.9 mph - N/A   Scattered Clouds
4:56 PM 84.9 °F 15.1 °F 7% 29.67 in 10.0 mi West 10.4 mph - N/A   Scattered Clouds
5:56 PM 82.9 °F 14.0 °F 8% 29.67 in 10.0 mi SSW 6.9 mph - N/A   Scattered Clouds
6:56 PM 82.0 °F 9.0 °F 6% 29.66 in 10.0 mi SW 9.2 mph - N/A   Scattered Clouds
7:56 PM 79.0 °F 8.1 °F 7% 29.67 in 10.0 mi SW 10.4 mph - N/A   Scattered Clouds
8:56 PM 75.9 °F 9.0 °F 8% 29.67 in 10.0 mi SW 9.2 mph - N/A   Partly Cloudy
9:56 PM 73.0 °F 12.9 °F 10% 29.66 in 10.0 mi SSW 12.7 mph - N/A   Mostly Cloudy
10:56 PM 75.0 °F 15.1 °F 10% 29.64 in 10.0 mi South 9.2 mph - N/A   Mostly Cloudy
11:56 PM 73.9 °F 19.0 °F 13% 29.63 in 10.0 mi SSW 15.0 mph 21.9 mph N/A   Mostly Cloudy